Simultaneous Nadir Overpasses (SNOs) Predictions

Prediction of SNOs between GOES-16 and AQUA Satellite Orbit:

Table of predicted SNOs for the next 14.0 days since TLE Epoch: 3/1/2019
Index Date Time (GOES-16) GOES-16 Lat,Lon AQUA Lat,Lon Distance(km) Time Diff (sec)
1 03/01/2019 18:45:07 0.01, -75.20 -0.50, -77.57 269.57 80
2 03/03/2019 18:35:36 -0.00, -75.21 0.11, -74.61 67.70 80
3 03/05/2019 18:23:25 -0.00, -75.22 0.73, -71.65 405.35 80
4 03/06/2019 06:44:40 0.00, -75.21 0.35, -76.81 181.86 80
5 03/08/2019 06:29:50 0.00, -75.23 -0.26, -73.85 156.53 80
6 03/08/2019 18:51:14 -0.00, -75.25 -0.79, -79.05 431.80 80
7 03/10/2019 06:17:40 0.00, -75.26 -0.94, -70.91 495.33 80
8 03/10/2019 18:39:03 -0.00, -75.28 -0.17, -76.09 92.79 80
9 03/12/2019 18:29:32 -0.00, -75.30 0.46, -73.14 246.46 80
10 03/13/2019 06:50:48 0.00, -75.30 0.64, -78.29 340.35 80
11 03/15/2019 06:38:37 -0.00, -75.33 0.02, -75.33 2.36 80




NCC Satellite Simultaneous Nadir Overpasses (SNOs) Prediction Service
